DW1926 Auckland NZ current weather conditions

sailwx.info

Wind from 117 at 1 knots gusting 6

Air temperature 14.4° C
Dewpoint 13.8° C

Last reported at 2020-May-27 01:10 UTC.
Time now 2020-May-27 01:48 UTC

Location: S 36°53' E 175°01'.
View on Google Maps.

See reports from other nearby stations

  
Tides and Currents Weather Stations Pressure Air Temp Water Temp Dewpoint Dewpoint Depression Visibility Wind Speed Wind Dir Waves Ship Positions
date/time (UTC)wind fromknots sea level pressurealtimeterstation pressurevisibilityair tempwater tempwave heightnotes
2020-May-27 01:10 117 1 gusting 6 14.4
2020-May-27 01:05 118 1 gusting 6 14.4
2020-May-27 01:00 116 1 gusting 6 14.4
2020-May-27 00:55 116 2 gusting 7 13.9
2020-May-27 00:50 116 2 gusting 7 13.9
2020-May-27 00:45 116 3 gusting 8 13.9
2020-May-27 00:40 116 3 gusting 8 13.9
2020-May-27 00:35 116 2 gusting 7 13.9
2020-May-27 00:30 115 2 gusting 9 13.9
2020-May-27 00:25 114 2 gusting 9 13.9
2020-May-27 00:20 114 3 gusting 8 13.9
2020-May-27 00:15 114 2 gusting 8 13.9
2020-May-27 00:10 112 2 gusting 8 13.9
2020-May-27 00:05 110 2 gusting 6 13.9
2020-May-27 00:00 110 2 gusting 9 13.9
2020-May-26 23:55 110 2 gusting 9 13.9
2020-May-26 23:50 111 2 gusting 9 13.9
2020-May-26 23:45 109 2 gusting 8 13.9
2020-May-26 23:40 108 3 gusting 9 13.9
2020-May-26 23:35 105 3 gusting 9 13.9
2020-May-26 23:30 105 2 gusting 8 13.9
2020-May-26 23:25 105 3 gusting 9 13.9
2020-May-26 23:20 105 2 gusting 9 13.9
2020-May-26 23:15 104 3 gusting 9 13.9
2020-May-26 23:10 102 3 gusting 9 13.9
2020-May-26 23:05 100 3 gusting 9 13.9
2020-May-26 23:00 114 3 gusting 7 13.9
2020-May-26 22:50 098 2 gusting 10 13.9
2020-May-26 22:45 097 2 gusting 10 13.9
2020-May-26 22:40 096 3 gusting 10 13.9
2020-May-26 22:35 095 3 gusting 8 13.9
2020-May-26 22:30 096 3 gusting 7 13.9
2020-May-26 22:25 097 2 gusting 8 13.9
2020-May-26 22:20 096 2 gusting 8 13.9
2020-May-26 22:15 095 2 gusting 8 13.9
2020-May-26 22:10 095 3 gusting 9 13.9
2020-May-26 22:05 093 3 gusting 9 13.9
2020-May-26 22:00 092 3 gusting 9 13.9
2020-May-26 21:55 091 3 gusting 10 13.9
2020-May-26 21:50 090 4 gusting 13 13.9
2020-May-26 21:45 090 5 gusting 13 13.9
2020-May-26 21:40 090 5 gusting 14 13.9
2020-May-26 21:35 090 6 gusting 14 13.9
2020-May-26 21:30 089 5 gusting 13 13.9
2020-May-26 21:25 088 5 gusting 12 13.9
2020-May-26 21:20 088 6 gusting 13 13.9
2020-May-26 21:15 088 6 gusting 13 13.9
2020-May-26 21:10 086 5 gusting 12 13.9
2020-May-26 21:05 086 5 gusting 10 13.9
2020-May-26 21:00 085 5 gusting 12 13.9
2020-May-26 20:55 086 4 gusting 13 12.8
2020-May-26 20:50 087 3 gusting 13 13.9
2020-May-26 20:45 088 4 gusting 11 13.9
2020-May-26 20:40 088 3 gusting 11 13.9
2020-May-26 20:35 089 4 gusting 10 13.9
2020-May-26 20:30 088 5 gusting 10 13.9
2020-May-26 20:25 088 5 gusting 10 13.9
2020-May-26 20:20 088 6 gusting 13 13.9
2020-May-26 20:15 088 6 gusting 13 13.9
2020-May-26 20:10 088 6 gusting 13 13.9
2020-May-26 20:05 088 6 gusting 12 13.9
2020-May-26 20:00 089 6 gusting 13 13.9
2020-May-26 19:55 090 6 gusting 13 13.9
2020-May-26 19:50 089 6 gusting 15 13.9
2020-May-26 19:45 089 6 gusting 15 13.9
2020-May-26 19:40 090 7 gusting 18 13.9
2020-May-26 19:35 090 7 gusting 18 13.9
2020-May-26 19:30 090 6 gusting 18 13.9
2020-May-26 19:25 091 6 gusting 13 13.9
2020-May-26 19:20 091 5 gusting 13 13.9
2020-May-26 19:15 091 6 gusting 13 13.9
2020-May-26 19:10 092 5 gusting 13 13.9
2020-May-26 19:05 092 4 gusting 10 13.9
2020-May-26 19:00 092 5 gusting 11 13.9
2020-May-26 18:55 091 5 gusting 12 13.9
2020-May-26 18:50 091 5 gusting 12 13.9
2020-May-26 18:45 091 4 gusting 11 13.9
2020-May-26 18:40 092 3 gusting 11 13.9
2020-May-26 18:35 092 3 gusting 10 13.9
2020-May-26 18:30 093 4 gusting 11 13.9
2020-May-26 18:25 092 5 gusting 13 13.9
2020-May-26 18:20 092 6 gusting 13 13.9
2020-May-26 18:15 092 5 gusting 10 13.9
2020-May-26 18:10 091 4 gusting 12 13.9
2020-May-26 18:05 093 5 gusting 13 13.9
2020-May-26 18:00 094 6 gusting 13 13.9
2020-May-26 17:55 095 6 gusting 14 13.9
2020-May-26 17:30 095 6 gusting 15 13.9
2020-May-26 17:25 095 6 gusting 13 13.9
2020-May-26 17:20 096 6 gusting 13 13.9
2020-May-26 17:15 094 6 gusting 13 13.9
2020-May-26 17:10 094 6 gusting 13 13.9
2020-May-26 17:05 094 7 gusting 13 13.9
2020-May-26 17:00 095 7 gusting 13 13.9
2020-May-26 16:55 096 6 gusting 13 13.9
2020-May-26 16:50 095 6 gusting 13 13.9
2020-May-26 16:45 094 5 gusting 13 13.9
2020-May-26 16:40 093 5 gusting 13 13.9
2020-May-26 16:35 093 5 gusting 12 13.9
2020-May-26 16:30 093 4 gusting 12 13.9
2020-May-26 16:25 092 3 gusting 9 13.9
2020-May-26 16:20 092 4 gusting 11 13.9
2020-May-26 16:15 091 3 gusting 11 13.9
2020-May-26 16:10 091 3 gusting 10 13.9
2020-May-26 16:05 090 4 gusting 13 13.9
2020-May-26 16:00 090 5 gusting 15 13.9
2020-May-26 15:55 090 6 gusting 15 13.9
2020-May-26 15:50 089 6 gusting 14 13.9
2020-May-26 15:45 088 5 gusting 14 13.9
2020-May-26 15:40 089 6 gusting 14 13.9
2020-May-26 15:35 089 7 gusting 18 13.9
2020-May-26 15:30 088 7 gusting 18 13.9
2020-May-26 15:25 087 6 gusting 14 14.4
2020-May-26 15:20 086 5 gusting 13 14.4
2020-May-26 15:15 087 5 gusting 13 14.4
2020-May-26 15:10 087 5 gusting 13 14.4
2020-May-26 15:05 087 6 gusting 13 14.4
2020-May-26 15:00 085 6 gusting 13 14.4
2020-May-26 14:55 086 6 gusting 16 14.4
2020-May-26 14:50 086 6 gusting 16 14.4
2020-May-26 14:45 086 6 gusting 16 14.4
2020-May-26 14:40 086 6 gusting 15 14.4
2020-May-26 14:35 086 7 gusting 17 14.4
2020-May-26 14:30 086 7 gusting 17 14.4
2020-May-26 14:25 087 6 gusting 13 14.4
2020-May-26 14:20 086 6 gusting 14 14.4
2020-May-26 14:15 087 6 gusting 14 14.4
2020-May-26 14:10 087 6 gusting 13 14.4
2020-May-26 14:05 087 6 gusting 13 14.4
2020-May-26 14:00 087 6 gusting 13 14.4
2020-May-26 13:55 088 6 gusting 13 14.4
2020-May-26 13:50 089 7 gusting 14 14.4
2020-May-26 13:45 090 7 gusting 14 14.4
2020-May-26 13:40 089 6 gusting 16 15.0
2020-May-26 13:35 089 6 gusting 16 15.0
2020-May-26 13:30 089 6 gusting 14 15.0
2020-May-26 13:25 090 6 gusting 14 15.0
2020-May-26 13:20 090 6 gusting 14 15.0
2020-May-26 13:15 090 6 gusting 14 15.0
2020-May-26 13:10 090 6 gusting 14 15.0
2020-May-26 13:05 091 6 gusting 12 15.0
2020-May-26 13:00 093 5 gusting 11 15.0
2020-May-26 12:55 092 4 gusting 11 15.0
2020-May-26 12:50 093 5 gusting 10 15.0
2020-May-26 12:45 092 5 gusting 13 15.0
2020-May-26 12:40 092 5 gusting 13 15.0
2020-May-26 12:35 092 6 gusting 13 15.0
2020-May-26 12:30 092 6 gusting 13 15.0
2020-May-26 12:25 091 6 gusting 13 15.0
2020-May-26 12:20 090 6 gusting 13 15.0
2020-May-26 12:15 090 6 gusting 13 15.0
2020-May-26 12:10 090 6 gusting 13 15.0
2020-May-26 12:05 091 6 gusting 13 15.0
2020-May-26 12:00 091 6 gusting 13 15.0
2020-May-26 11:55 091 6 gusting 13 15.0
2020-May-26 11:50 090 6 gusting 13 15.0
2020-May-26 11:45 090 6 gusting 12 15.0
2020-May-26 11:40 091 6 gusting 13 15.0
2020-May-26 11:35 091 6 gusting 13 15.0
2020-May-26 11:30 093 6 gusting 13 15.0
2020-May-26 11:25 092 6 gusting 14 15.0
2020-May-26 11:20 092 6 gusting 14 15.0
2020-May-26 11:15 093 6 gusting 13 15.0
2020-May-26 11:10 093 5 gusting 13 15.0
2020-May-26 11:05 091 5 gusting 13 15.0
2020-May-26 11:00 090 5 gusting 11 15.6
2020-May-26 10:55 091 6 gusting 13 15.6
2020-May-26 10:50 090 5 gusting 13 15.6
2020-May-26 10:45 090 4 gusting 13 15.6
2020-May-26 10:40 090 4 gusting 8 15.6
2020-May-26 10:35 090 4 gusting 9 15.6
2020-May-26 10:30 090 3 gusting 9 15.6
2020-May-26 10:25 091 4 gusting 9 15.6
2020-May-26 10:20 093 4 gusting 9 15.6
2020-May-26 10:15 094 2 gusting 9 15.6
2020-May-26 10:10 093 1 gusting 6 15.6
2020-May-26 10:05 091 1 gusting 6 15.6
2020-May-26 10:00 090 1 gusting 6 15.6
2020-May-26 09:55 090 1 gusting 6 15.6
2020-May-26 09:50 089 1 gusting 6 15.6
2020-May-26 09:45 088 1 gusting 9 15.6
2020-May-26 09:40 088 2 gusting 9 15.6
2020-May-26 09:35 087 2 gusting 9 15.6
2020-May-26 09:30 086 3 gusting 7 15.6
2020-May-26 09:25 086 3 gusting 6 15.6
2020-May-26 09:20 087 3 gusting 8 15.6
2020-May-26 09:15 087 2 gusting 9 15.6
2020-May-26 09:10 087 3 gusting 9 15.6
2020-May-26 09:05 087 4 gusting 9 15.6
2020-May-26 09:00 087 4 gusting 9 15.6
2020-May-26 08:55 087 3 gusting 9 15.6
2020-May-26 08:50 087 3 gusting 7 15.6
2020-May-26 08:45 088 3 gusting 8 15.6
2020-May-26 08:40 088 3 gusting 8 15.6
2020-May-26 08:35 088 2 gusting 8 15.6
2020-May-26 08:30 088 2 gusting 11 15.6
2020-May-26 08:25 089 3 gusting 11 15.6
2020-May-26 08:20 089 5 gusting 12 15.6
2020-May-26 08:15 089 6 gusting 13 15.6
2020-May-26 08:10 090 6 gusting 13 15.6
2020-May-26 08:05 090 6 gusting 13 15.6
2020-May-26 08:00 091 6 gusting 12 15.6
2020-May-26 07:55 092 6 gusting 12 15.6
2020-May-26 07:50 093 6 gusting 13 15.6
2020-May-26 07:45 094 5 gusting 13 15.6
2020-May-26 07:40 093 3 gusting 9 15.6
2020-May-26 07:35 093 3 gusting 8 15.6
2020-May-26 07:30 094 3 gusting 8 15.6
2020-May-26 07:25 094 4 gusting 8 15.6
2020-May-26 07:20 094 3 gusting 9 15.6
2020-May-26 07:15 094 3 gusting 9 15.6
2020-May-26 07:10 093 3 gusting 9 15.6
2020-May-26 07:05 093 2 gusting 9 15.6
2020-May-26 07:00 093 1 gusting 6 15.6
2020-May-26 06:55 092 1 gusting 6 15.6
2020-May-26 06:50 092 3 gusting 10 15.6
2020-May-26 06:45 092 2 gusting 10 15.6
2020-May-26 06:40 091 2 gusting 7 15.6
2020-May-26 06:35 091 2 gusting 7 15.6
2020-May-26 06:30 091 2 gusting 7 15.6
2020-May-26 06:25 090 1 gusting 7 15.6
2020-May-26 06:20 089 1 gusting 7 15.6
2020-May-26 06:15 087 1 gusting 7 15.6
2020-May-26 06:10 087 1 gusting 8 15.6
2020-May-26 06:05 086 1 gusting 8 15.6
2020-May-26 06:00 085 1 gusting 6 15.6
2020-May-26 05:55 083 2 gusting 6 15.6
2020-May-26 05:50 082 3 gusting 7 16.1
2020-May-26 05:45 082 3 gusting 7 16.1
2020-May-26 05:40 082 3 gusting 7 16.1
2020-May-26 05:35 082 3 gusting 8 16.1
2020-May-26 05:30 080 3 gusting 8 16.1
2020-May-26 05:25 077 2 gusting 6 16.7
2020-May-26 05:20 076 3 gusting 6 16.7
2020-May-26 05:15 077 2 gusting 6 16.7
2020-May-26 05:10 077 1 gusting 6 16.7
2020-May-26 05:05 078 1 gusting 6 16.7
2020-May-26 05:00 079 1 gusting 6 16.7
2020-May-26 04:55 080 2 gusting 6 16.7
2020-May-26 04:50 081 1 gusting 6 16.7
2020-May-26 04:45 081 0 gusting 5 16.7
2020-May-26 04:40 082 0 gusting 4 17.2
2020-May-26 04:35 082 0 gusting 4 17.2
2020-May-26 04:30 083 0 gusting 4 17.2
2020-May-26 04:25 084 0 gusting 4 17.2
2020-May-26 04:20 084 0 gusting 4 17.2